Time,TemperatureF,DewpointF,PressureIn,WindDirection,WindDirectionDegrees,WindSpeedMPH,WindSpeedGustMPH,Humidity,HourlyPrecipIn,Conditions,Clouds,dailyrainin,SoftwareType,DateUTC
2013-06-08 00:03:00,67.0,64.9,29.88,North,360,4.0,6.0,93,0.00,,,0.00,Weather View 32 v70,2013-06-08 04:03:00,
2013-06-08 00:04:00,67.0,64.9,29.88,North,360,0.0,6.0,93,0.00,,,0.00,Weather View 32 v70,2013-06-08 04:04:00,
2013-06-08 00:09:00,67.0,64.9,29.88,North,360,1.0,6.0,93,0.00,,,0.00,Weather View 32 v70,2013-06-08 04:09:00,
2013-06-08 00:14:00,66.0,64.2,29.88,North,360,2.0,6.0,94,0.00,,,0.00,Weather View 32 v70,2013-06-08 04:14:00,
2013-06-08 00:19:00,66.0,64.2,29.88,North,360,0.0,6.0,94,0.00,,,0.00,Weather View 32 v70,2013-06-08 04:19:00,
2013-06-08 00:24:00,66.0,64.5,29.88,North,360,0.0,6.0,95,0.00,,,0.00,Weather View 32 v70,2013-06-08 04:24:00,
2013-06-08 00:29:00,66.0,64.5,29.88,North,360,0.0,6.0,95,0.00,,,0.00,Weather View 32 v70,2013-06-08 04:29:00,
2013-06-08 00:34:00,66.0,64.5,29.88,North,360,1.0,6.0,95,0.00,,,0.00,Weather View 32 v70,2013-06-08 04:34:00,
2013-06-08 00:39:00,66.0,64.5,29.88,North,360,0.0,5.0,95,0.00,,,0.00,Weather View 32 v70,2013-06-08 04:39:00,
2013-06-08 00:44:00,66.0,64.5,29.88,North,360,1.0,5.0,95,0.00,,,0.00,Weather View 32 v70,2013-06-08 04:44:00,
2013-06-08 00:54:00,66.0,64.5,29.88,North,360,1.0,4.0,95,0.00,,,0.00,Weather View 32 v70,2013-06-08 04:54:00,
2013-06-08 00:59:00,66.0,64.8,29.88,North,360,2.0,4.0,96,0.00,,,0.00,Weather View 32 v70,2013-06-08 04:59:00,
2013-06-08 01:04:00,66.0,64.5,29.88,North,360,0.0,4.0,95,0.00,,,0.00,Weather View 32 v70,2013-06-08 05:04:00,
2013-06-08 01:14:00,66.0,64.8,29.88,North,360,0.0,4.0,96,0.00,,,0.00,Weather View 32 v70,2013-06-08 05:14:00,
2013-06-08 01:19:00,66.0,64.8,29.88,North,360,0.0,4.0,96,0.00,,,0.00,Weather View 32 v70,2013-06-08 05:19:00,
2013-06-08 01:24:00,66.0,64.8,29.88,North,360,1.0,4.0,96,0.00,,,0.00,Weather View 32 v70,2013-06-08 05:24:00,
2013-06-08 01:29:00,66.0,64.8,29.88,North,360,1.0,4.0,96,0.00,,,0.00,Weather View 32 v70,2013-06-08 05:29:00,
2013-06-08 01:34:00,66.0,64.8,29.88,North,360,0.0,4.0,96,0.00,,,0.00,Weather View 32 v70,2013-06-08 05:34:00,
2013-06-08 01:39:00,66.0,64.8,29.88,North,360,0.0,4.0,96,0.00,,,0.00,Weather View 32 v70,2013-06-08 05:39:00,
2013-06-08 01:44:00,66.0,64.8,29.87,North,360,0.0,4.0,96,0.00,,,0.00,Weather View 32 v70,2013-06-08 05:44:00,
2013-06-08 01:54:00,65.0,64.1,29.87,North,360,0.0,4.0,97,0.00,,,0.00,Weather View 32 v70,2013-06-08 05:54:00,
2013-06-08 01:59:00,65.0,64.4,29.87,North,360,0.0,4.0,98,0.00,,,0.00,Weather View 32 v70,2013-06-08 05:59:00,
2013-06-08 02:05:00,65.0,64.1,29.87,North,360,0.0,4.0,97,0.00,,,0.00,Weather View 32 v70,2013-06-08 06:05:00,
2013-06-08 02:14:00,65.0,64.4,29.87,North,360,0.0,6.0,98,0.00,,,0.00,Weather View 32 v70,2013-06-08 06:14:00,
2013-06-08 02:24:00,65.0,64.4,29.88,North,360,0.0,6.0,98,0.00,,,0.00,Weather View 32 v70,2013-06-08 06:24:00,
2013-06-08 02:29:00,65.0,64.4,29.87,North,360,0.0,6.0,98,0.00,,,0.00,Weather View 32 v70,2013-06-08 06:29:00,
2013-06-08 02:34:00,65.0,64.1,29.87,North,360,1.0,6.0,97,0.00,,,0.00,Weather View 32 v70,2013-06-08 06:34:00,
2013-06-08 02:44:00,65.0,64.4,29.87,North,360,1.0,6.0,98,0.00,,,0.00,Weather View 32 v70,2013-06-08 06:44:00,
2013-06-08 02:49:00,65.0,64.4,29.87,North,360,2.0,6.0,98,0.00,,,0.00,Weather View 32 v70,2013-06-08 06:49:00,
2013-06-08 02:54:00,65.0,64.4,29.87,North,360,1.0,6.0,98,0.00,,,0.00,Weather View 32 v70,2013-06-08 06:54:00,
2013-06-08 02:59:00,65.0,64.4,29.87,North,360,1.0,6.0,98,0.00,,,0.00,Weather View 32 v70,2013-06-08 06:59:00,
2013-06-08 03:05:00,65.0,64.7,29.87,North,360,3.0,6.0,99,0.00,,,0.00,Weather View 32 v70,2013-06-08 07:05:00,
2013-06-08 03:14:00,65.0,64.7,29.87,North,360,1.0,6.0,99,0.00,,,0.00,Weather View 32 v70,2013-06-08 07:14:00,
2013-06-08 03:19:00,65.0,64.7,29.87,NNE,22,2.0,6.0,99,0.00,,,0.00,Weather View 32 v70,2013-06-08 07:19:00,
2013-06-08 03:24:00,65.0,65.0,29.87,NNE,22,0.0,6.0,100,0.00,,,0.00,Weather View 32 v70,2013-06-08 07:24:00,
2013-06-08 03:29:00,65.0,65.0,29.87,North,360,1.0,6.0,100,0.00,,,0.00,Weather View 32 v70,2013-06-08 07:29:00,
2013-06-08 03:39:00,65.0,65.0,29.87,NW,315,3.0,6.0,100,0.00,,,0.00,Weather View 32 v70,2013-06-08 07:39:00,
2013-06-08 03:44:00,65.0,65.0,29.87,NW,315,2.0,6.0,100,0.00,,,0.00,Weather View 32 v70,2013-06-08 07:44:00,
2013-06-08 03:49:00,65.0,65.0,29.87,NW,315,0.0,6.0,100,0.00,,,0.00,Weather View 32 v70,2013-06-08 07:49:00,
2013-06-08 03:59:00,64.0,64.0,29.87,North,360,3.0,6.0,100,0.00,,,0.00,Weather View 32 v70,2013-06-08 07:59:00,
2013-06-08 04:04:00,64.0,64.0,29.87,North,360,2.0,6.0,100,0.00,,,0.00,Weather View 32 v70,2013-06-08 08:04:00,
2013-06-08 04:09:00,64.0,64.0,29.88,North,360,1.0,6.0,100,0.00,,,0.00,Weather View 32 v70,2013-06-08 08:09:00,
2013-06-08 04:14:00,64.0,64.0,29.88,WNW,292,3.0,6.0,100,0.00,,,0.00,Weather View 32 v70,2013-06-08 08:14:00,
2013-06-08 04:24:00,64.0,64.0,29.88,WNW,292,3.0,7.0,100,0.00,,,0.00,Weather View 32 v70,2013-06-08 08:24:00,
2013-06-08 04:29:00,64.0,64.0,29.88,North,360,3.0,7.0,100,0.00,,,0.00,Weather View 32 v70,2013-06-08 08:29:00,
2013-06-08 04:34:00,63.0,63.0,29.88,North,360,5.0,7.0,100,0.03,,,0.03,Weather View 32 v70,2013-06-08 08:34:00,
2013-06-08 04:39:00,63.0,63.0,29.89,North,360,5.0,7.0,100,0.13,,,0.13,Weather View 32 v70,2013-06-08 08:39:00,
2013-06-08 04:44:00,63.0,63.0,29.88,NNE,22,0.0,7.0,100,0.21,,,0.21,Weather View 32 v70,2013-06-08 08:44:00,
2013-06-08 04:49:00,62.0,62.0,29.88,NW,315,3.0,7.0,100,0.23,,,0.23,Weather View 32 v70,2013-06-08 08:49:00,
2013-06-08 04:54:00,62.0,62.0,29.88,NW,315,3.0,7.0,100,0.23,,,0.23,Weather View 32 v70,2013-06-08 08:54:00,
2013-06-08 05:04:00,62.0,62.0,29.88,East,90,5.0,7.0,100,0.23,,,0.23,Weather View 32 v70,2013-06-08 09:04:00,
2013-06-08 05:09:00,62.0,62.0,29.88,NNE,22,3.0,7.0,100,0.23,,,0.23,Weather View 32 v70,2013-06-08 09:09:00,
2013-06-08 05:14:00,62.0,62.0,29.88,North,360,3.0,7.0,100,0.23,,,0.23,Weather View 32 v70,2013-06-08 09:14:00,
2013-06-08 05:19:00,62.0,62.0,29.88,North,360,1.0,7.0,100,0.23,,,0.23,Weather View 32 v70,2013-06-08 09:19:00,
2013-06-08 05:24:00,62.0,62.0,29.88,North,360,0.0,7.0,100,0.23,,,0.23,Weather View 32 v70,2013-06-08 09:24:00,
2013-06-08 05:34:00,62.0,62.0,29.89,North,360,0.0,7.0,100,0.20,,,0.23,Weather View 32 v70,2013-06-08 09:34:00,
2013-06-08 05:39:00,62.0,62.0,29.89,North,360,0.0,7.0,100,0.10,,,0.23,Weather View 32 v70,2013-06-08 09:39:00,
2013-06-08 05:44:00,62.0,62.0,29.89,North,360,0.0,7.0,100,0.02,,,0.23,Weather View 32 v70,2013-06-08 09:44:00,
2013-06-08 05:49:00,62.0,62.0,29.89,North,360,0.0,7.0,100,0.00,,,0.23,Weather View 32 v70,2013-06-08 09:49:00,
2013-06-08 05:54:00,62.0,62.0,29.89,North,360,0.0,7.0,100,0.00,,,0.23,Weather View 32 v70,2013-06-08 09:54:00,
2013-06-08 06:04:00,62.0,62.0,29.89,North,360,2.0,5.0,100,0.00,,,0.23,Weather View 32 v70,2013-06-08 10:04:00,
2013-06-08 06:09:00,62.0,62.0,29.89,North,360,1.0,5.0,100,0.00,,,0.23,Weather View 32 v70,2013-06-08 10:09:00,
2013-06-08 06:14:00,62.0,62.0,29.89,NE,45,4.0,5.0,100,0.00,,,0.23,Weather View 32 v70,2013-06-08 10:14:00,
2013-06-08 06:19:00,62.0,62.0,29.89,NE,45,2.0,5.0,100,0.00,,,0.23,Weather View 32 v70,2013-06-08 10:19:00,
2013-06-08 06:29:00,62.0,62.0,29.90,SE,135,0.0,5.0,100,0.01,,,0.24,Weather View 32 v70,2013-06-08 10:29:00,
2013-06-08 06:34:00,62.0,62.0,29.90,South,180,0.0,5.0,100,0.06,,,0.29,Weather View 32 v70,2013-06-08 10:34:00,
2013-06-08 06:39:00,62.0,62.0,29.90,South,180,0.0,5.0,100,0.09,,,0.32,Weather View 32 v70,2013-06-08 10:39:00,
2013-06-08 06:49:00,62.0,62.0,29.91,South,180,0.0,5.0,100,0.10,,,0.33,Weather View 32 v70,2013-06-08 10:49:00,
2013-06-08 06:54:00,62.0,62.0,29.91,South,180,0.0,5.0,100,0.11,,,0.34,Weather View 32 v70,2013-06-08 10:54:00,
2013-06-08 06:59:00,62.0,62.0,29.91,SE,135,0.0,5.0,100,0.12,,,0.35,Weather View 32 v70,2013-06-08 10:59:00,
2013-06-08 07:04:00,62.0,62.0,29.91,ESE,112,0.0,5.0,100,0.12,,,0.35,Weather View 32 v70,2013-06-08 11:04:00,
2013-06-08 07:14:00,62.0,62.0,29.92,ESE,112,2.0,5.0,100,0.12,,,0.35,Weather View 32 v70,2013-06-08 11:14:00,
2013-06-08 07:19:00,62.0,62.0,29.92,ESE,112,0.0,3.0,100,0.12,,,0.35,Weather View 32 v70,2013-06-08 11:19:00,
2013-06-08 07:24:00,62.0,62.0,29.92,ESE,112,0.0,2.0,100,0.12,,,0.35,Weather View 32 v70,2013-06-08 11:24:00,
2013-06-08 07:29:00,62.0,62.0,29.92,ESE,112,0.0,2.0,100,0.11,,,0.35,Weather View 32 v70,2013-06-08 11:29:00,
2013-06-08 07:34:00,61.0,61.0,29.92,ESE,112,0.0,2.0,100,0.06,,,0.35,Weather View 32 v70,2013-06-08 11:34:00,
2013-06-08 07:39:00,61.0,61.0,29.92,ESE,112,0.0,2.0,100,0.03,,,0.35,Weather View 32 v70,2013-06-08 11:39:00,
2013-06-08 07:44:00,61.0,61.0,29.93,ESE,112,0.0,2.0,100,0.04,,,0.36,Weather View 32 v70,2013-06-08 11:44:00,
2013-06-08 07:54:00,62.0,62.0,29.92,ESE,112,0.0,3.0,100,0.02,,,0.36,Weather View 32 v70,2013-06-08 11:54:00,
2013-06-08 08:04:00,62.0,62.0,29.93,ESE,112,0.0,3.0,100,0.01,,,0.36,Weather View 32 v70,2013-06-08 12:04:00,
2013-06-08 08:09:00,62.0,62.0,29.93,ESE,112,0.0,3.0,100,0.01,,,0.36,Weather View 32 v70,2013-06-08 12:09:00,
2013-06-08 08:14:00,62.0,62.0,29.93,ESE,112,0.0,3.0,100,0.01,,,0.36,Weather View 32 v70,2013-06-08 12:14:00,
2013-06-08 08:19:00,62.0,62.0,29.93,East,90,2.0,5.0,100,0.01,,,0.36,Weather View 32 v70,2013-06-08 12:19:00,
2013-06-08 08:24:00,62.0,62.0,29.93,ENE,67,0.0,5.0,100,0.01,,,0.36,Weather View 32 v70,2013-06-08 12:24:00,
2013-06-08 08:29:00,62.0,62.0,29.93,East,90,0.0,5.0,100,0.01,,,0.36,Weather View 32 v70,2013-06-08 12:29:00,
2013-06-08 08:39:00,62.0,62.0,29.93,East,90,3.0,5.0,100,0.01,,,0.36,Weather View 32 v70,2013-06-08 12:39:00,
2013-06-08 08:44:00,63.0,63.0,29.94,East,90,1.0,5.0,100,0.00,,,0.36,Weather View 32 v70,2013-06-08 12:44:00,
2013-06-08 08:49:00,63.0,63.0,29.94,ESE,112,0.0,5.0,100,0.00,,,0.36,Weather View 32 v70,2013-06-08 12:49:00,
2013-06-08 08:59:00,63.0,63.0,29.94,East,90,0.0,5.0,100,0.00,,,0.36,Weather View 32 v70,2013-06-08 12:59:00,
2013-06-08 09:04:00,63.0,63.0,29.94,East,90,0.0,5.0,100,0.00,,,0.36,Weather View 32 v70,2013-06-08 13:04:00,
2013-06-08 09:09:00,63.0,63.0,29.94,East,90,0.0,5.0,100,0.00,,,0.36,Weather View 32 v70,2013-06-08 13:09:00,
2013-06-08 09:14:00,63.0,63.0,29.95,East,90,1.0,5.0,100,0.00,,,0.36,Weather View 32 v70,2013-06-08 13:14:00,
2013-06-08 09:19:00,63.0,63.0,29.95,NE,45,2.0,6.0,100,0.00,,,0.36,Weather View 32 v70,2013-06-08 13:19:00,
2013-06-08 09:24:00,63.0,63.0,29.95,NE,45,1.0,6.0,100,0.00,,,0.36,Weather View 32 v70,2013-06-08 13:24:00,
2013-06-08 09:29:00,64.0,64.0,29.95,ENE,67,2.0,6.0,100,0.00,,,0.36,Weather View 32 v70,2013-06-08 13:29:00,
2013-06-08 09:39:00,64.0,64.0,29.96,NE,45,1.0,7.0,100,0.00,,,0.36,Weather View 32 v70,2013-06-08 13:39:00,
2013-06-08 09:44:00,64.0,64.0,29.96,East,90,0.0,7.0,100,0.00,,,0.36,Weather View 32 v70,2013-06-08 13:44:00,
2013-06-08 09:49:00,64.0,64.0,29.97,ENE,67,4.0,7.0,100,0.00,,,0.36,Weather View 32 v70,2013-06-08 13:49:00,
2013-06-08 09:59:00,65.0,65.0,29.97,ENE,67,0.0,7.0,100,0.00,,,0.36,Weather View 32 v70,2013-06-08 13:59:00,
2013-06-08 10:04:00,65.0,65.0,29.97,ENE,67,2.0,7.0,100,0.00,,,0.36,Weather View 32 v70,2013-06-08 14:04:00,
2013-06-08 10:09:00,65.0,65.0,29.97,ESE,112,1.0,7.0,100,0.00,,,0.36,Weather View 32 v70,2013-06-08 14:09:00,
2013-06-08 10:14:00,65.0,65.0,29.97,ESE,112,0.0,7.0,100,0.00,,,0.36,Weather View 32 v70,2013-06-08 14:14:00,
2013-06-08 10:24:00,66.0,66.0,29.98,NE,45,2.0,7.0,100,0.00,,,0.36,Weather View 32 v70,2013-06-08 14:24:00,
2013-06-08 10:29:00,66.0,66.0,29.98,WNW,292,0.0,7.0,100,0.00,,,0.36,Weather View 32 v70,2013-06-08 14:29:00,
2013-06-08 10:34:00,66.0,66.0,29.98,North,360,1.0,6.0,100,0.00,,,0.36,Weather View 32 v70,2013-06-08 14:34:00,
2013-06-08 10:39:00,66.0,66.0,29.98,East,90,1.0,6.0,100,0.00,,,0.36,Weather View 32 v70,2013-06-08 14:39:00,
2013-06-08 10:49:00,67.0,67.0,29.98,NNE,22,0.0,6.0,100,0.00,,,0.36,Weather View 32 v70,2013-06-08 14:49:00,
2013-06-08 10:54:00,68.0,68.0,29.98,NNE,22,3.0,6.0,100,0.00,,,0.36,Weather View 32 v70,2013-06-08 14:54:00,
2013-06-08 10:59:00,68.0,68.0,29.98,East,90,1.0,6.0,100,0.00,,,0.36,Weather View 32 v70,2013-06-08 14:59:00,
2013-06-08 11:04:00,69.0,69.0,29.98,NNE,22,1.0,6.0,100,0.00,,,0.36,Weather View 32 v70,2013-06-08 15:04:00,
2013-06-08 11:10:00,70.0,69.1,29.98,NNE,22,3.0,6.0,97,0.00,,,0.36,Weather View 32 v70,2013-06-08 15:10:00,
2013-06-08 11:19:00,71.0,70.4,29.98,NNE,22,3.0,6.0,98,0.00,,,0.36,Weather View 32 v70,2013-06-08 15:19:00,
2013-06-08 11:24:00,71.0,70.1,29.99,NE,45,2.0,6.0,97,0.00,,,0.36,Weather View 32 v70,2013-06-08 15:24:00,
2013-06-08 11:34:00,72.0,70.5,29.99,North,360,0.0,7.0,95,0.00,,,0.36,Weather View 32 v70,2013-06-08 15:34:00,
2013-06-08 11:39:00,73.0,70.5,29.99,NE,45,4.0,7.0,92,0.00,,,0.36,Weather View 32 v70,2013-06-08 15:39:00,
2013-06-08 11:44:00,74.0,71.2,30.00,NW,315,3.0,7.0,91,0.00,,,0.36,Weather View 32 v70,2013-06-08 15:44:00,
2013-06-08 11:49:00,74.0,71.8,30.00,SSE,157,0.0,7.0,93,0.00,,,0.36,Weather View 32 v70,2013-06-08 15:49:00,
2013-06-08 11:59:00,76.0,73.2,30.01,SE,135,1.0,7.0,91,0.00,,,0.36,Weather View 32 v70,2013-06-08 15:59:00,
2013-06-08 12:04:00,76.0,68.6,30.01,East,90,0.0,7.0,78,0.00,,,0.36,Weather View 32 v70,2013-06-08 16:04:00,
2013-06-08 12:09:00,76.0,70.4,30.01,SE,135,1.0,7.0,83,0.00,,,0.36,Weather View 32 v70,2013-06-08 16:09:00,
2013-06-08 12:14:00,77.0,70.3,30.01,NE,45,2.0,7.0,80,0.00,,,0.36,Weather View 32 v70,2013-06-08 16:14:00,
2013-06-08 12:24:00,78.0,69.0,30.02,NW,315,1.0,7.0,74,0.00,,,0.36,Weather View 32 v70,2013-06-08 16:24:00,
2013-06-08 12:29:00,78.0,70.9,30.02,ENE,67,4.0,7.0,79,0.00,,,0.36,Weather View 32 v70,2013-06-08 16:29:00,
2013-06-08 12:34:00,79.0,70.0,30.02,East,90,0.0,7.0,74,0.00,,,0.36,Weather View 32 v70,2013-06-08 16:34:00,
2013-06-08 12:44:00,80.0,70.1,30.02,ENE,67,0.0,6.0,72,0.00,,,0.36,Weather View 32 v70,2013-06-08 16:44:00,
2013-06-08 12:49:00,80.0,68.9,30.02,SSE,157,0.0,6.0,69,0.00,,,0.36,Weather View 32 v70,2013-06-08 16:49:00,
2013-06-08 12:54:00,80.0,66.7,30.02,East,90,4.0,7.0,64,0.00,,,0.36,Weather View 32 v70,2013-06-08 16:54:00,
2013-06-08 12:59:00,80.0,66.7,30.02,ENE,67,4.0,7.0,64,0.00,,,0.36,Weather View 32 v70,2013-06-08 16:59:00,
2013-06-08 13:09:00,81.0,66.7,30.02,NE,45,3.0,7.0,62,0.00,,,0.36,Weather View 32 v70,2013-06-08 17:09:00,
2013-06-08 13:14:00,81.0,66.2,30.02,SE,135,4.0,7.0,61,0.00,,,0.36,Weather View 32 v70,2013-06-08 17:14:00,
2013-06-08 13:19:00,81.0,65.8,30.02,East,90,1.0,7.0,60,0.00,,,0.36,Weather View 32 v70,2013-06-08 17:19:00,
2013-06-08 13:29:00,81.0,65.8,30.02,WNW,292,4.0,7.0,60,0.00,,,0.36,Weather View 32 v70,2013-06-08 17:29:00,
2013-06-08 13:34:00,81.0,65.3,30.02,WNW,292,4.0,7.0,59,0.00,,,0.36,Weather View 32 v70,2013-06-08 17:34:00,
2013-06-08 13:39:00,81.0,64.8,30.02,WNW,292,3.0,7.0,58,0.00,,,0.36,Weather View 32 v70,2013-06-08 17:39:00,
2013-06-08 13:44:00,81.0,68.5,30.01,WNW,292,1.0,7.0,66,0.00,,,0.36,Weather View 32 v70,2013-06-08 17:44:00,
2013-06-08 13:54:00,82.0,66.2,30.01,East,90,4.0,6.0,59,0.00,,,0.36,Weather View 32 v70,2013-06-08 17:54:00,
2013-06-08 13:59:00,82.0,65.7,30.01,East,90,0.0,6.0,58,0.00,,,0.36,Weather View 32 v70,2013-06-08 17:59:00,
2013-06-08 14:04:00,81.0,66.2,30.01,ENE,67,2.0,6.0,61,0.00,,,0.36,Weather View 32 v70,2013-06-08 18:04:00,
2013-06-08 14:09:00,81.0,65.3,30.01,NE,45,4.0,6.0,59,0.00,,,0.36,Weather View 32 v70,2013-06-08 18:09:00,
2013-06-08 14:19:00,81.0,64.3,30.01,NE,45,0.0,6.0,57,0.00,,,0.36,Weather View 32 v70,2013-06-08 18:19:00,
2013-06-08 14:24:00,80.0,64.3,30.01,NE,45,0.0,6.0,59,0.00,,,0.36,Weather View 32 v70,2013-06-08 18:24:00,
2013-06-08 14:34:00,79.0,64.3,30.01,NE,45,0.0,6.0,61,0.00,,,0.36,Weather View 32 v70,2013-06-08 18:34:00,
2013-06-08 14:39:00,80.0,66.2,30.01,East,90,1.0,6.0,63,0.00,,,0.36,Weather View 32 v70,2013-06-08 18:39:00,
2013-06-08 14:44:00,81.0,63.2,30.01,East,90,3.0,6.0,55,0.00,,,0.36,Weather View 32 v70,2013-06-08 18:44:00,
2013-06-08 14:49:00,80.0,63.8,30.01,SE,135,0.0,6.0,58,0.00,,,0.36,Weather View 32 v70,2013-06-08 18:49:00,
2013-06-08 14:54:00,80.0,62.8,30.01,NNE,22,0.0,6.0,56,0.00,,,0.36,Weather View 32 v70,2013-06-08 18:54:00,
2013-06-08 14:59:00,80.0,63.8,30.01,NNE,22,0.0,6.0,58,0.00,,,0.36,Weather View 32 v70,2013-06-08 18:59:00,
2013-06-08 15:04:00,80.0,62.3,30.01,North,360,1.0,6.0,55,0.00,,,0.36,Weather View 32 v70,2013-06-08 19:04:00,
2013-06-08 15:09:00,79.0,61.4,30.01,North,360,2.0,7.0,55,0.00,,,0.36,Weather View 32 v70,2013-06-08 19:09:00,
2013-06-08 15:19:00,80.0,64.8,30.00,North,360,4.0,7.0,60,0.00,,,0.36,Weather View 32 v70,2013-06-08 19:19:00,
2013-06-08 15:24:00,80.0,63.8,30.01,NNE,22,6.0,7.0,58,0.00,,,0.36,Weather View 32 v70,2013-06-08 19:24:00,
2013-06-08 15:29:00,81.0,63.2,30.00,ESE,112,1.0,7.0,55,0.00,,,0.36,Weather View 32 v70,2013-06-08 19:29:00,
2013-06-08 15:34:00,82.0,63.7,30.00,North,360,5.0,7.0,54,0.00,,,0.36,Weather View 32 v70,2013-06-08 19:34:00,
2013-06-08 15:44:00,82.0,63.7,30.00,NE,45,3.0,7.0,54,0.00,,,0.36,Weather View 32 v70,2013-06-08 19:44:00,
2013-06-08 15:49:00,81.0,62.7,30.00,ESE,112,0.0,7.0,54,0.00,,,0.36,Weather View 32 v70,2013-06-08 19:49:00,
2013-06-08 15:54:00,81.0,64.3,30.00,ESE,112,2.0,7.0,57,0.00,,,0.36,Weather View 32 v70,2013-06-08 19:54:00,
2013-06-08 16:04:00,80.0,61.8,29.99,ESE,112,3.0,7.0,54,0.00,,,0.36,Weather View 32 v70,2013-06-08 20:04:00,
2013-06-08 16:09:00,81.0,64.8,29.99,SW,225,1.0,7.0,58,0.00,,,0.36,Weather View 32 v70,2013-06-08 20:09:00,
2013-06-08 16:14:00,81.0,62.7,29.99,WNW,292,2.0,6.0,54,0.00,,,0.36,Weather View 32 v70,2013-06-08 20:14:00,
2013-06-08 16:24:00,81.0,63.8,30.00,WSW,247,1.0,6.0,56,0.00,,,0.36,Weather View 32 v70,2013-06-08 20:24:00,
2013-06-08 16:34:00,81.0,62.7,29.99,SW,225,0.0,6.0,54,0.00,,,0.36,Weather View 32 v70,2013-06-08 20:34:00,
2013-06-08 16:39:00,81.0,61.7,30.00,SE,135,4.0,6.0,52,0.00,,,0.36,Weather View 32 v70,2013-06-08 20:39:00,
2013-06-08 16:44:00,81.0,62.2,30.00,South,180,1.0,6.0,53,0.00,,,0.36,Weather View 32 v70,2013-06-08 20:44:00,
2013-06-08 16:54:00,81.0,62.7,30.00,NNW,337,0.0,6.0,54,0.00,,,0.36,Weather View 32 v70,2013-06-08 20:54:00,
2013-06-08 16:59:00,80.0,62.8,30.00,NNW,337,0.0,6.0,56,0.00,,,0.36,Weather View 32 v70,2013-06-08 20:59:00,
2013-06-08 17:04:00,80.0,61.8,30.00,ESE,112,1.0,6.0,54,0.00,,,0.36,Weather View 32 v70,2013-06-08 21:04:00,
2013-06-08 17:09:00,80.0,61.3,30.00,SE,135,0.0,6.0,53,0.00,,,0.36,Weather View 32 v70,2013-06-08 21:09:00,
2013-06-08 17:14:00,79.0,61.4,30.00,SE,135,2.0,6.0,55,0.00,,,0.36,Weather View 32 v70,2013-06-08 21:14:00,
2013-06-08 17:19:00,79.0,62.9,30.00,South,180,2.0,6.0,58,0.00,,,0.36,Weather View 32 v70,2013-06-08 21:19:00,
2013-06-08 17:29:00,79.0,62.4,30.00,SSE,157,1.0,6.0,57,0.00,,,0.36,Weather View 32 v70,2013-06-08 21:29:00,
2013-06-08 17:34:00,79.0,61.4,30.00,South,180,3.0,6.0,55,0.00,,,0.36,Weather View 32 v70,2013-06-08 21:34:00,
2013-06-08 17:39:00,79.0,62.4,30.00,SSE,157,1.0,6.0,57,0.00,,,0.36,Weather View 32 v70,2013-06-08 21:39:00,
2013-06-08 17:44:00,79.0,61.9,30.00,ESE,112,3.0,6.0,56,0.00,,,0.36,Weather View 32 v70,2013-06-08 21:44:00,
2013-06-08 17:49:00,79.0,62.4,30.00,ESE,112,5.0,6.0,57,0.00,,,0.36,Weather View 32 v70,2013-06-08 21:49:00,
2013-06-08 17:59:00,79.0,61.4,30.00,SE,135,1.0,6.0,55,0.00,,,0.36,Weather View 32 v70,2013-06-08 21:59:00,
2013-06-08 18:04:00,79.0,62.9,30.00,ESE,112,3.0,6.0,58,0.00,,,0.36,Weather View 32 v70,2013-06-08 22:04:00,
2013-06-08 18:13:00,78.0,62.0,30.00,SSE,157,2.0,6.0,58,0.00,,,0.36,Weather View 32 v70,2013-06-08 22:13:00,
2013-06-08 18:19:00,79.0,61.4,30.00,SE,135,3.0,6.0,55,0.00,,,0.36,Weather View 32 v70,2013-06-08 22:19:00,
2013-06-08 18:24:00,79.0,62.9,30.00,South,180,0.0,6.0,58,0.00,,,0.36,Weather View 32 v70,2013-06-08 22:24:00,
2013-06-08 18:29:00,79.0,61.4,30.00,WNW,292,0.0,6.0,55,0.00,,,0.36,Weather View 32 v70,2013-06-08 22:29:00,
2013-06-08 18:40:00,80.0,63.3,29.99,WNW,292,0.0,6.0,57,0.00,,,0.36,Weather View 32 v70,2013-06-08 22:40:00,
2013-06-08 18:50:00,80.0,62.8,29.99,WSW,247,2.0,6.0,56,0.00,,,0.36,Weather View 32 v70,2013-06-08 22:50:00,
2013-06-08 18:55:00,80.0,63.3,30.00,South,180,0.0,6.0,57,0.00,,,0.36,Weather View 32 v70,2013-06-08 22:55:00,
2013-06-08 19:05:00,81.0,63.8,30.00,South,180,0.0,6.0,56,0.00,,,0.36,Weather View 32 v70,2013-06-08 23:05:00,
2013-06-08 19:14:00,81.0,63.2,30.00,West,270,0.0,6.0,55,0.00,,,0.36,Weather View 32 v70,2013-06-08 23:14:00,
2013-06-08 19:20:00,81.0,61.7,30.00,West,270,0.0,6.0,52,0.00,,,0.36,Weather View 32 v70,2013-06-08 23:20:00,
2013-06-08 19:25:00,81.0,62.7,30.00,West,270,1.0,6.0,54,0.00,,,0.36,Weather View 32 v70,2013-06-08 23:25:00,
2013-06-08 19:35:00,81.0,63.8,30.00,West,270,2.0,6.0,56,0.00,,,0.36,Weather View 32 v70,2013-06-08 23:35:00,
2013-06-08 19:40:00,80.0,63.3,30.00,West,270,2.0,6.0,57,0.00,,,0.36,Weather View 32 v70,2013-06-08 23:40:00,
2013-06-08 19:45:00,80.0,63.3,30.01,West,270,0.0,6.0,57,0.00,,,0.36,Weather View 32 v70,2013-06-08 23:45:00,
2013-06-08 19:55:00,79.0,63.4,30.01,West,270,0.0,5.0,59,0.00,,,0.36,Weather View 32 v70,2013-06-08 23:55:00,
2013-06-08 20:00:00,79.0,63.9,30.01,West,270,0.0,5.0,60,0.00,,,0.36,Weather View 32 v70,2013-06-09 00:00:00,
2013-06-08 20:10:00,78.0,63.4,30.01,West,270,0.0,3.0,61,0.00,,,0.36,Weather View 32 v70,2013-06-09 00:10:00,
2013-06-08 20:15:00,78.0,65.2,30.01,West,270,0.0,3.0,65,0.00,,,0.36,Weather View 32 v70,2013-06-09 00:15:00,
2013-06-08 20:25:00,77.0,66.4,30.01,West,270,0.0,3.0,70,0.00,,,0.36,Weather View 32 v70,2013-06-09 00:25:00,
2013-06-08 20:30:00,76.0,64.2,30.01,SE,135,1.0,5.0,67,0.00,,,0.36,Weather View 32 v70,2013-06-09 00:30:00,
2013-06-08 20:35:00,75.0,63.3,30.01,SE,135,0.0,5.0,67,0.00,,,0.36,Weather View 32 v70,2013-06-09 00:35:00,
2013-06-08 20:40:00,75.0,63.7,30.01,SE,135,2.0,5.0,68,0.00,,,0.36,Weather View 32 v70,2013-06-09 00:40:00,
2013-06-08 20:50:00,74.0,64.0,30.01,SE,135,1.0,5.0,71,0.00,,,0.36,Weather View 32 v70,2013-06-09 00:50:00,
2013-06-08 20:55:00,74.0,64.4,30.01,SE,135,0.0,5.0,72,0.00,,,0.36,Weather View 32 v70,2013-06-09 00:55:00,
2013-06-08 21:05:00,73.0,64.6,30.01,SE,135,0.0,5.0,75,0.00,,,0.36,Weather View 32 v70,2013-06-09 01:05:00,
2013-06-08 21:10:00,73.0,65.3,30.01,SE,135,0.0,5.0,77,0.00,,,0.36,Weather View 32 v70,2013-06-09 01:10:00,
2013-06-08 21:16:00,72.0,64.7,30.01,SE,135,0.0,5.0,78,0.00,,,0.36,Weather View 32 v70,2013-06-09 01:16:00,
2013-06-08 21:25:00,71.0,65.6,30.00,SE,135,0.0,5.0,83,0.00,,,0.36,Weather View 32 v70,2013-06-09 01:25:00,
2013-06-08 21:30:00,71.0,66.6,30.00,SE,135,0.0,3.0,86,0.00,,,0.36,Weather View 32 v70,2013-06-09 01:30:00,
2013-06-08 21:40:00,71.0,66.9,30.01,SE,135,0.0,3.0,87,0.00,,,0.36,Weather View 32 v70,2013-06-09 01:40:00,
2013-06-08 21:45:00,70.0,66.3,30.00,SE,135,0.0,3.0,88,0.00,,,0.36,Weather View 32 v70,2013-06-09 01:45:00,
2013-06-08 21:50:00,70.0,66.3,30.01,SE,135,0.0,2.0,88,0.00,,,0.36,Weather View 32 v70,2013-06-09 01:50:00,
2013-06-08 22:00:00,70.0,66.3,30.01,SE,135,0.0,1.0,88,0.00,,,0.36,Weather View 32 v70,2013-06-09 02:00:00,
2013-06-08 22:10:00,70.0,66.9,30.01,SE,135,0.0,0.0,90,0.00,,,0.36,Weather View 32 v70,2013-06-09 02:10:00,
2013-06-08 22:15:00,69.0,65.9,30.01,SE,135,0.0,0.0,90,0.00,,,0.36,Weather View 32 v70,2013-06-09 02:15:00,
2013-06-08 22:20:00,69.0,65.9,30.01,SE,135,0.0,0.0,90,0.00,,,0.36,Weather View 32 v70,2013-06-09 02:20:00,
2013-06-08 22:25:00,69.0,65.9,30.01,SE,135,0.0,0.0,90,0.00,,,0.36,Weather View 32 v70,2013-06-09 02:25:00,
2013-06-08 22:35:00,69.0,66.3,30.01,SE,135,0.0,0.0,91,0.00,,,0.36,Weather View 32 v70,2013-06-09 02:35:00,
2013-06-08 22:40:00,69.0,66.9,30.01,SE,135,0.0,0.0,93,0.00,,,0.36,Weather View 32 v70,2013-06-09 02:40:00,
2013-06-08 22:50:00,68.0,65.6,30.01,SE,135,0.0,0.0,92,0.00,,,0.36,Weather View 32 v70,2013-06-09 02:50:00,
2013-06-08 22:55:00,68.0,65.9,30.01,SE,135,0.0,0.0,93,0.00,,,0.36,Weather View 32 v70,2013-06-09 02:55:00,
2013-06-08 23:00:00,68.0,65.9,30.01,SE,135,0.0,0.0,93,0.00,,,0.36,Weather View 32 v70,2013-06-09 03:00:00,
2013-06-08 23:05:00,68.0,65.9,30.02,SE,135,0.0,2.0,93,0.00,,,0.36,Weather View 32 v70,2013-06-09 03:05:00,
2013-06-08 23:10:00,69.0,67.2,30.01,SE,135,0.0,2.0,94,0.00,,,0.36,Weather View 32 v70,2013-06-09 03:10:00,
2013-06-08 23:15:00,68.0,66.2,30.01,SE,135,0.0,2.0,94,0.00,,,0.36,Weather View 32 v70,2013-06-09 03:15:00,
2013-06-08 23:25:00,68.0,66.5,30.02,SE,135,0.0,2.0,95,0.00,,,0.36,Weather View 32 v70,2013-06-09 03:25:00,
2013-06-08 23:30:00,69.0,67.5,30.02,SE,135,0.0,4.0,95,0.00,,,0.36,Weather View 32 v70,2013-06-09 03:30:00,
2013-06-08 23:35:00,69.0,67.5,30.02,SE,135,1.0,4.0,95,0.00,,,0.36,Weather View 32 v70,2013-06-09 03:35:00,
2013-06-08 23:45:00,70.0,68.2,30.02,ESE,112,2.0,5.0,94,0.00,,,0.36,Weather View 32 v70,2013-06-09 03:45:00,
2013-06-08 23:50:00,70.0,67.9,30.02,ESE,112,0.0,5.0,93,0.00,,,0.36,Weather View 32 v70,2013-06-09 03:50:00,